Regional Weather Roundup
Issued by NWS

Home | Current Version | Previous Version | Graphics & Text | Print | Product List | Glossary On
Versions: 1 2 3 4 5 6 7 8 9 10 11 12 13 14 15 16 17 18 19 20 21 22 23 24 25 26 27
000
ASUS45 KSLC 250710
RWRUT

UTAH REGIONAL WEATHER ROUNDUP
NATIONAL WEATHER SERVICE SALT LAKE CITY UT
100 AM MDT TUE APR 25 2017

UTZ001>011-023>025-250800-

NORTHERN UTAH

CITY           SKY/WX    TMP DP  RH WIND       PRES   REMARKS
BRIGHAM CITY   CLOUDY    45  39  81 N6        29.75S
HILL AFB       MIX PCPN  41  37  87 S9        29.75S
LOGAN          CLOUDY    44  39  82 CALM      29.74S
OGDEN          MOCLDY    42  38  85 S7        29.75R
SALT LAKE CITY MOCLDY    43  41  93 SE6       29.75F
TOOELE VALLEY  MOCLDY    36  34  93 S7        29.78R WCI  30
WENDOVER       PTCLDY    44  33  65 NW5       29.77F
HEBER CITY     MOCLDY    34  32  93 E6        29.76F WCI  29
WEST JORDAN    PTCLDY    42  42 100 S7        29.77S

$$

UTZ011>015-024>027-250800-

CENTRAL/NORTHEAST UTAH

CITY           SKY/WX    TMP DP  RH WIND       PRES   REMARKS
PROVO AIRPORT  CLOUDY    41  37  86 S6        29.78S
MOAB/CANYONLAN CLOUDY    52  31  44 W12       29.68R
DELTA          CLOUDY    45  32  61 NW5       29.78S
PRICE          PTCLDY    38  30  73 NE7       29.72R WCI  33
RICHFIELD      PTCLDY    45  37  76 NW3       29.80S
ROOSEVELT      CLEAR     39  28  65 W9        29.69R WCI  33
VERNAL         CLEAR     38  28  67 N6        29.68R WCI  33

$$

UTZ013>016-019>022-027-250800-

SOUTHERN UTAH

CITY           SKY/WX    TMP DP  RH WIND       PRES   REMARKS
BRYCE CANYON   MOCLDY    38  28  67 NE9       29.80R WCI  31
CEDAR CITY     CLOUDY    46  31  55 CALM      29.77R
MILFORD        CLOUDY    46  35  65 NW8       29.77R
ST GEORGE      PTSUNNY   69  15  12 W10       29.64S
HANKSVILLE     PTCLDY    52  32  46 NW9       29.73S
KANAB          CLEAR     54  30  40 SW7       29.73F
BLANDING       CLOUDY    51  29  42 NW16G23   29.77R

$$

REGIONAL REPORTS     COLORADO/ARIZONA

CITY           SKY/WX    TMP DP  RH WIND       PRES   REMARKS
CRAIG, CO      CLOUDY    36  32  85 NW7       29.72R WCI  30
GRAND JUNCTION CLOUDY    46  40  79 SE8       29.72R
RIFLE, CO      CLOUDY    42  38  85 E10       29.74F
MONTROSE, CO   LGT RAIN  44  34  67 NW23G44   29.75R
CORTEZ, CO     CLOUDY    50  31  48 N13       29.71R
COLORADO CITY    N/A     59  21  23 NW7       29.73S
PAGE, AZ       CLOUDY    67  26  21 SW6       29.63R
GRAND CANYON   CLOUDY    47  29  49 SW7       29.80S
KINGMAN, AZ    CLOUDY    56  32  40 S5        29.69F
FLAGSTAFF, AZ  CLOUDY    50  26  39 SW7       29.80F

$$

REGIONAL REPORTS    NEVADA/IDAHO/WYOMING

CITY           SKY/WX    TMP DP  RH WIND       PRES   REMARKS
LAS VEGAS, NV  MOCLDY    74  23  15 NW23G30   29.61R
ELY, NY        CLOUDY    36  29  75 W7        29.85R WCI  30
ELKO, NV       CLOUDY    39  35  86 W9        29.83R WCI  33
POCATELLO, ID  CLOUDY    40  37  89 SW22G30   29.73R WCI  30
BURLEY, ID     CLOUDY    41  35  79 W17G23    29.73S
FORT BRIDGER,    N/A     32  32 100 W15       29.74S WCI  22
EVANSTON, WY   CLOUDY    32  32 100 SW15      29.74S WCI  22
ROCK SPRINGS,  CLOUDY    34  29  82 W16       29.69R WCI  24
KEMMERER, WY     N/A     30  28  93 W10       29.70S WCI  21

$$




USA.gov is the U.S. government's official web portal to all federal, state and local government web resources and services.